Agua de Enmedio, Mexico

3:54 AM MST on February 23, 2017 (GMT -0700)
Gen Manuel Marquez De Leon

Weather History for MMLP - April, 2012

Change the Weather History Date:

Saturday, April 28, 2012

  Actual Average Record
Temperature  
Mean Temperature 73 °F -  
Max Temperature 86 °F 92 °F 98 °F (2013)
Min Temperature 60 °F 60 °F 53 °F (2006)
Cooling Degree Days 8    
Growing Degree Days 23 (Base 50)    
Moisture  
Dew Point 53 °F    
Average Humidity 57    
Maximum Humidity 88    
Minimum Humidity 26    
Precipitation  
Precipitation 0.00 in - - ()
Sea Level Pressure  
Sea Level Pressure 29.89 in    
Wind  
Wind Speed 10 mph ()    
Max Wind Speed 16 mph    
Max Gust Speed -    
Visibility 10.4 miles    
Events      
Averages and records for this station are not official NWS values.
T = Trace of Precipitation, MM = Missing Value Source: Averaged Metar Reports

Daily Weather History Graph

Daily Weather History Graph

Search for Another Location

Airport or City:

Trip Planner

Search our weather history database for the weather conditions in past years. The results will help you decide how hot, cold, wet, or windy it might be!

Date:

Astronomy

Apr. 28, 2012 Rise Set
Actual Time 6:48 AM MDT 7:49 PM MDT
Civil Twilight 6:25 AM MDT 8:12 PM MDT
Nautical Twilight 5:57 AM MDT 8:41 PM MDT
Astronomical Twilight 5:28 AM MDT 9:09 PM MDT
Moon 12:34 PM MDT (4/28) 1:11 AM MDT (4/28)
Length of Visible Light 13h 47m
Length of Day
13h 00m
Waxing Crescent, 43% of the Moon is Illuminated
Apr 28
Waxing Crescent
Apr 29
First Quarter
May 5
Full
May 12
Last Quarter
May 20
New

Hourly Weather History & Observations

Time (MDT) Temp. Dew Point Humidity Pressure Visibility Wind Dir Wind Speed Gust Speed Precip Events Conditions
5:41 AM 59.0 °F 53.6 °F 82% 29.96 in 10.0 mi South 9.2 mph - N/A   Clear
5:50 AM 62 °F 57 °F 79% 29.84 in 2 mi South 15.7 mph - -  
6:48 AM 57.2 °F 53.6 °F 88% 29.86 in 10.0 mi SSE 6.9 mph - N/A   Scattered Clouds
8:10 AM 59.0 °F 53.6 °F 82% 29.88 in 10.0 mi South 9.2 mph - N/A   Scattered Clouds
8:44 AM 60.8 °F 55.4 °F 82% 29.99 in 10.0 mi South 11.5 mph - N/A   Mostly Cloudy
8:50 AM 64 °F 57 °F 72% 29.88 in 12 mi South 15.7 mph - -   Mostly Cloudy
9:44 AM 64.4 °F 55.4 °F 73% 29.89 in 10.0 mi South 11.5 mph - N/A   Mostly Cloudy
10:48 AM 66.2 °F 53.6 °F 64% 29.90 in 10.0 mi South 12.7 mph - N/A   Overcast
11:45 AM 69.8 °F 51.8 °F 53% 30.01 in 10.0 mi South 11.5 mph - N/A   Overcast
11:50 AM 73 °F 60 °F 55% 29.90 in 19 mi South 6.7 mph - -   Mostly Cloudy
12:48 PM 75.2 °F 50.0 °F 41% 29.88 in 10.0 mi South 13.8 mph - N/A   Overcast
1:48 PM 77.0 °F 50.0 °F 39% 29.87 in 10.0 mi SSE 16.1 mph - N/A   Overcast
2:45 PM 85 °F 62 °F 37% 29.85 in 19 mi South 6.7 mph - -   Mostly Cloudy
2:46 PM 78.8 °F 46.4 °F 32% 29.96 in 12.0 mi SSW 13.8 mph - N/A   Mostly Cloudy
3:48 PM 80.6 °F 44.6 °F 28% 29.84 in 12.0 mi South 11.5 mph - N/A   Mostly Cloudy
4:43 PM 80.6 °F 42.8 °F 26% 29.82 in 10.0 mi South 13.8 mph - N/A   Mostly Cloudy
5:46 PM 75.2 °F 48.2 °F 38% 29.95 in 10.0 mi South 11.5 mph - N/A   Mostly Cloudy
5:50 PM 79 °F 58 °F 39% 29.82 in 19 mi South 13.4 mph - -   Mostly Cloudy
6:42 PM 73.4 °F 50.0 °F 44% 29.84 in 10.0 mi SSW 13.8 mph - N/A   Mostly Cloudy
7:40 PM 68.0 °F 51.8 °F 56% 29.85 in 10.0 mi South 13.8 mph - N/A   Mostly Cloudy
8:45 PM 66.2 °F 51.8 °F 60% 29.99 in 10.0 mi South 11.5 mph - N/A   Mostly Cloudy
8:50 PM 68 °F 57 °F 59% 29.86 in 2 mi South 13.4 mph - -   Mostly Cloudy
9:48 PM 64.4 °F 51.8 °F 64% 29.88 in 10.0 mi South 13.8 mph - N/A   Scattered Clouds
10:43 PM 64.4 °F 51.8 °F 64% 29.89 in 10.0 mi South 13.8 mph - N/A   Scattered Clouds
11:50 PM 65 °F 58 °F 71% 29.87 in 2 mi South 13.4 mph - -   Mostly Cloudy